This is the latest recevied weather packets stored in our database for station/object S56VIL-11. If no packets are shown the sender has not sent any weather packets the latest 10 day(s).
| Time | Temp. | Humidity | Pressure | Rain* | Wind** | Luminosity | Snow |
|---|---|---|---|---|---|---|---|
| 1788493242 | 19.44° C | 58% | 1033.4 hPa | - | - | - | - |
| 1788492338 | 19.44° C | 57% | 1033.6 hPa | - | - | - | - |
| 1788491438 | 20° C | 57% | 1033.7 hPa | - | - | - | - |
| 1788490538 | 20° C | 57% | 1033.7 hPa | - | - | - | - |
| 1788489638 | 20° C | 57% | 1033.6 hPa | - | - | - | - |
| 1788488738 | 20° C | 57% | 1033.7 hPa | - | - | - | - |
| 1788487838 | 20° C | 57% | 1033.7 hPa | - | - | - | - |
| 1788486938 | 20.56° C | 56% | 1033.7 hPa | - | - | - | - |
| 1788486038 | 20.56° C | 56% | 1033.7 hPa | - | - | - | - |
| 1788485137 | 20.56° C | 57% | 1033.7 hPa | - | - | - | - |
| 1788484258 | 20.56° C | 57% | 1033.6 hPa | - | - | - | - |
| 1788483337 | 21.67° C | 56% | 1033.5 hPa | - | - | - | - |
| 1788482437 | 21.67° C | 56% | 1033.7 hPa | - | - | - | - |
| 1788481537 | 21.11° C | 56% | 1033.9 hPa | - | - | - | - |
| 1788480637 | 21.11° C | 56% | 1033.8 hPa | - | - | - | - |
| 1788479737 | 21.11° C | 56% | 1033.9 hPa | - | - | - | - |
| 1788478837 | 20.56° C | 57% | 1033.9 hPa | - | - | - | - |
| 1788477937 | 20° C | 57% | 1033.9 hPa | - | - | - | - |
| 1788477037 | 20° C | 57% | 1033.8 hPa | - | - | - | - |
| 1788476137 | 20.56° C | 57% | 1033.9 hPa | - | - | - | - |
| 1788475237 | 21.11° C | 56% | 1033.9 hPa | - | - | - | - |
| 1788474337 | 21.11° C | 56% | 1033.8 hPa | - | - | - | - |
| 1788473437 | 21.67° C | 56% | 1033.8 hPa | - | - | - | - |
| 1788472537 | 21.67° C | 55% | 1033.6 hPa | - | - | - | - |
| 1788471637 | 21.67° C | 56% | 1033.6 hPa | - | - | - | - |
* Rain since midnight (hover to see other rain measurements)
** Current wind speed in m/s (hover to see current wind gust speed)